Regional Weather Roundup
Issued by NWS

Home | Current Version | Previous Version | Graphics & Text | Print | Product List | Glossary On
Versions: 1 2 3 4 5 6 7 8 9 10 11 12 13 14 15 16 17 18 19 20 21 22 23 24 25 26 27 28 29 30 31 32 33 34 35 36 37 38 39 40 41 42 43 44 45 46 47 48 49 50
000
ASUS43 KLMK 271802
RWRKY
KENTUCKY REGIONAL WEATHER ROUNDUP
NATIONAL WEATHER SERVICE LOUISVILLE KY
200 PM EDT SUN JUL 27 2014

NOTE "FAIR" INDICATES FEW OR NO CLOUDS BELOW 12,000 FEET
WITH NO SIGNIFICANT WEATHER AND/OR OBSTRUCTIONS TO VISIBILITY.

KYZ001>023-026-027-061>063-070>075-271900-
WESTERN AND SOUTH CENTRAL KENTUCKY

CITY           SKY/WX    TMP DP  RH WIND       PRES   REMARKS
PADUCAH        MOSUNNY   93  77  59 W13G21    29.88S HX 107
HENDERSON      PTSUNNY   88  75  66 W13       29.83S HX  97
OWENSBORO      PTSUNNY   87  77  72 W15       29.84S HX  98
HOPKINSVILLE   MOSUNNY   93  74  52 W17G26    29.88F HX 103
BOWLING GREEN  PTSUNNY   93  72  50 W16       29.85F HX 101
GLASGOW        CLOUDY    89  73  58 SW14      29.85F HX  96
$$

KYZ024-025-028>034-038-045-046-053-271900-
NORTH CENTRAL KENTUCKY

CITY           SKY/WX    TMP DP  RH WIND       PRES   REMARKS
LOUISVILLE/SDF CLOUDY    78  74  87 W3        29.81F
LOUISVILLE/LOU CLOUDY    76  73  91 SW3       29.82F
FORT KNOX      CLOUDY    81  78  90 SW10      29.81F
$$

KYZ035>037-039>044-047>052-055>060-089>105-271900-
NORTHEAST KENTUCKY

CITY           SKY/WX    TMP DP  RH WIND       PRES   REMARKS
LEXINGTON      LGT RAIN  71  68  90 S7        29.85F FOG
COVINGTON      CLOUDY    73  68  84 S14       29.80F
FRANKFORT      TSTM      72  70  93 SE7       29.83F
$$

KYZ054-064>069-076>088-106>120-271900-
SOUTHEAST KENTUCKY

CITY           SKY/WX    TMP DP  RH WIND       PRES   REMARKS
JACKSON        LGT RAIN  68  67  96 CALM      29.89F VSB 3/4
LONDON         CLOUDY    82  73  74 S8        29.91F
SOMERSET       CLOUDY    82  72  69 SW7G17    29.88F
MIDDLESBORO    CLOUDY    85  73  69 S13       29.92F HX  91
MONTICELLO     CLEAR     84  76  77 SW12G17   29.89F HX  92
$$




USA.gov is the U.S. government's official web portal to all federal, state and local government web resources and services.